DELTA 1 DEB, 40766

Orbit data source: Space-Track

DELTA 1 DEB, 40766 is space debris in SSO originally from a launch on Thu, 29 Jul 1976 UTC launched from the Air Force Western Test Range (AFWTR). Debris objects in space refer to the collection of defunct objects orbiting the Earth. Examples of debris include non-operational satellites, rocket bodies, and fragments generated from explosions, collisions, or faulty payload assembly.

Loading next visibility...
Identifier
40766, 1976-077GK
Orbit
SSO
Country
Flag of USUS
Related business
Manufacturer
Unknown
Mission
Spacecraft
Bus & Motor
Unknown
Mass
Unknown
Launch date (UTC)
1976-07-29 (50 years ago)
Launch vehicle
Unknown
Launch site
Air Force Western Test Range (AFWTR)
Object type
Payload
Rocket body
Debris
Shape & HBR
Unknown shape, 0.1 m
Radar Cross Section
Small (<0.1 m²)

Expand to show TLE details & history
Last TLE update: 3 days ago

TLE from 3 days ago
0 DELTA 1 DEB
1 40766U 76077GK  26263.20544861 -.00000015  00000-0  25186-3 0  9991
2 40766 102.1220 160.0725 0103098  36.9001 116.6293 12.23261355132570
Epoch: 2026-09-20T04:55Z
TLE epoch observation values (Epoch: 2026-09-20T04:55:50.759Z)
Latitude
24.84244°
Longitude
-87.31282°
Altitude
1,618.474 km
Speed
7.047 km/s
True Right ascension
23h 03m 00s
True Declination
24° 43' 32"
Sunlit
Object was in full shadow at epoch
Visualization orbit readout
Latitude
Unknown
Longitude
Unknown
Altitude
Unknown
Speed
Unknown
Apparent Right ascension
Unknown
Apparent Declination
Unknown
Sunlit
N/A
Visualization observer readout
Local Sidereal Time
18:36:07
Azimuth
Unknown
Elevation
Unknown
Doppler factor
Unknown
Orbital elements
Apogee altitude
1,657.977 km
Perigee altitude
1,493.966 km
Semi-major axis
7,954.108 km
Eccentricity
0.01031
Inclination
102.122°
RAAN
160.0725°
Arg. of periapsis
36.9001°
True anomaly
117.67927°
Mean anomaly
116.6293°
Eccentric anomaly
117.1549°
Mean motion
3.05954 °/min
Orbital period
117.66 mins
BSTAR
0.00025186
Loading maneuver chart data...
Computing Atmospheric mass density...
Loading historical data...
Loading historical data...
Loading historical data...
Loading historical data...
Loading historical data...
Loading historical data...
Loading historical data...

Documentation

Showing up to 5 results
|